Regional Weather Roundup
Issued by NWS

Home | Current Version | Previous Version | Graphics & Text | Print | Product List | Glossary On
Versions: 1 2 3 4 5 6 7 8 9 10 11 12 13 14 15 16 17 18 19 20 21 22 23 24 25 26 27 28 29 30 31 32 33 34 35 36 37 38 39 40 41 42 43 44 45 46 47 48 49 50
789
ASUS45 KBOI 160310
RWRID

IDAHO REGIONAL WEATHER ROUNDUP
NATIONAL WEATHER SERVICE BOISE ID
800 PM MST MON JAN 15 2018

NOTE: "FAIR" INDICATES FEW OR NO CLOUDS BELOW 12000 FEET
WITH NO SIGNIFICANT WEATHER AND/OR OBSTRUCTIONS TO VISIBILITY

IDZ012-014-160400-
SOUTHWEST IDAHO


CITY           SKY/WX    TMP DP  RH WIND       PRES   REMARKS
BOISE          PTCLDY    41  33  73 SE7       30.23F
CALDWELL       NOT AVBL
MOUNTAIN HOME  MOCLDY    44  38  80 SE14      30.24R
$$

IDZ016-017-160400-
SOUTHCENTRAL IDAHO


CITY           SKY/WX    TMP DP  RH WIND       PRES   REMARKS
BURLEY         PTCLDY    37  28  70 NE8       30.28S WCI  31
JEROME         MOCLDY    38  27  64 NE22      30.26F WCI  27
TWIN FALLS     MOCLDY    36  29  75 E15       30.26F WCI  27
$$

IDZ019>023-160400-
SOUTHEAST IDAHO


CITY           SKY/WX    TMP DP  RH WIND       PRES   REMARKS
IDAHO FALLS    CLEAR     29  25  85 CALM      30.34S
POCATELLO      CLEAR     30  26  85 S3        30.32S
REXBURG        CLEAR     25  22  88 N3        30.34S
$$

IDZ006-010-011-018-031-032-160400-
CENTRAL IDAHO MOUNTAINS


CITY           SKY/WX    TMP DP  RH WIND       PRES   REMARKS
MCCALL         FOG       24  22  91 CALM      30.21F VSB 1/4
HAILEY         PTCLDY    28  27  93 NW9       30.32F WCI  20
STANLEY        NOT AVBL
SALMON         CLOUDY    31  27  85 SW7       30.40S WCI  24
CHALLIS        CLOUDY    26  23  88 CALM      30.37S
$$

IDZ002-004-006-007-026-160400-
NORTHERN IDAHO


CITY           SKY/WX    TMP DP  RH WIND       PRES   REMARKS
LEWISTON       PTCLDY    45  38  76 E9        30.12S
LOWELL         NOT AVBL
COEUR D`ALENE  CLEAR     38  31  76 N21       30.15F WCI  28
MULLAN PASS    CLOUDY    26  25  96 SE12G22   30.19S FOG     WCI  16
$$




USA.gov is the U.S. government's official web portal to all federal, state and local government web resources and services.